CW1203 Weather Reports


time (UTC)temp
F
wind
direction
speed
knots
gust
knots
rain 1hr
in
rain 24hr
in
rain mn
in
humidity
%
barometer
mb
20210920041501 66 96 0.0 0.0 0.00 0.10 0.00 98 1023.3
20210920040120 67 96 0.0 0.0 0.00 0.10 0.00 98 1023.3
20210920034627 66 96 0.0 0.0 0.00 0.10 0.10 98 1023.5
20210920033121 66 96 0.0 0.0 0.00 0.10 0.10 98 1023.4
20210920031651 67 96 0.0 0.0 0.00 0.10 0.10 98 1023.3
20210920030146 67 96 0.0 0.0 0.00 0.10 0.10 98 1023.3
20210920024622 67 96 0.0 0.0 0.00 0.10 0.10 98 1023.3
20210920023157 67 96 0.0 0.0 0.00 0.10 0.10 98 1023.1
20210920021600 66 96 0.0 0.0 0.00 0.10 0.10 98 1023.0
20210920020149 66 96 0.0 0.0 0.00 0.10 0.10 98 1022.9
20210920014658 66 96 0.0 0.0 0.00 0.10 0.10 98 1022.8
20210920013138 67 96 0.0 0.0 0.00 0.10 0.10 98 1022.8
20210920011611 67 96 0.0 0.0 0.00 0.10 0.10 97 1022.7
20210920010157 67 96 0.0 0.0 0.00 0.10 0.10 97 1022.4
20210920004707 68 96 0.0 0.0 0.00 0.10 0.10 97 1022.1
20210920003123 68 96 0.0 0.0 0.00 0.10 0.10 97 1021.9
20210920001627 68 96 0.0 0.0 0.00 0.10 0.10 97 1021.8
20210920000111 68 96 0.0 0.0 0.01 0.10 0.10 97 1021.7
20210919234600 68 96 0.0 0.0 0.01 0.10 0.10 97 1021.7
20210919233119 69 96 0.0 0.0 0.01 0.10 0.10 97 1021.7
20210919231617 69 96 0.0 0.0 0.01 0.10 0.10 97 1021.8
20210919224636 69 52 0.0 0.0 0.00 0.09 0.09 96 1022.0
20210919223215 69 52 0.0 0.0 0.00 0.09 0.09 95 1021.9
20210919221732 69 70 0.0 0.0 0.00 0.09 0.09 94 1021.9
20210919220049 69 72 0.0 0.0 0.00 0.09 0.09 95 1021.8
20210919214601 68 269 0.0 0.0 0.00 0.09 0.09 95 1021.6
20210919213103 69 263 0.0 0.0 0.01 0.09 0.09 95 1021.4
20210919211612 69 263 0.0 0.0 0.07 0.09 0.09 95 1021.5
20210919210103 69 263 0.0 0.0 0.08 0.09 0.09 94 1021.5
20210919204613 70 319 0.0 0.0 0.08 0.09 0.09 92 1021.5
20210919203200 72 259 0.0 0.0 0.07 0.08 0.08 90 1021.6
20210919201607 75 347 0.0 0.9 0.00 0.01 0.01 87 1021.5
20210919200119 75 316 0.0 0.0 0.00 0.01 0.01 86 1021.5
20210919194751 74 90 0.0 1.7 0.00 0.01 0.01 87 1021.7
20210919193058 75 226 0.0 0.0 0.00 0.01 0.01 90 1022.0
20210919191611 75 225 0.0 0.0 0.00 0.01 0.01 90 1022.2
20210919190038 74 225 0.0 0.9 0.01 0.01 0.01 89 1022.5
20210919184542 75 243 0.0 0.0 0.01 0.01 0.01 88 1022.6
20210919183039 75 243 0.0 0.0 0.01 0.01 0.01 90 1022.8
20210919181645 76 235 0.0 0.0 0.01 0.01 0.01 89 1022.9
20210919180035 75 226 0.0 0.9 0.00 0.00 0.00 86 1023.1
20210919174613 76 339 0.0 0.0 0.00 0.00 0.00 85 1023.2
20210919173102 76 56 0.0 0.9 0.00 0.00 0.00 85 1023.4
20210919171604 75 46 0.0 1.7 0.00 0.00 0.00 85 1023.5
20210919170127 75 91 0.0 1.7 0.00 0.00 0.00 82 1023.6
20210919164553 75 79 0.0 0.9 0.00 0.00 0.00 87 1023.6
20210919163111 75 82 0.0 0.9 0.00 0.00 0.00 85 1023.8
20210919161534 75 81 0.0 3.5 0.00 0.00 0.00 87 1023.8
20210919160119 74 105 0.0 3.5 0.00 0.00 0.00 86 1023.8
20210919154540 74 51 0.9 6.1 0.00 0.00 0.00 85 1023.9
20210919153048 74 50 0.0 0.0 0.00 0.00 0.00 86 1023.7
20210919151555 74 98 0.0 0.9 0.00 0.00 0.00 84 1023.9
20210919150030 74 127 0.0 0.9 0.00 0.00 0.00 85 1023.8
20210919144518 73 72 0.0 0.9 0.00 0.00 0.00 86 1023.8
20210919143031 72 113 0.0 1.7 0.00 0.00 0.00 87 1023.9
20210919141544 71 96 0.0 1.7 0.00 0.00 0.00 88 1023.7
20210919140003 71 79 0.0 2.6 0.00 0.00 0.00 89 1023.6
20210919134617 70 100 0.0 1.7 0.00 0.00 0.00 89 1023.5
20210919133245 70 83 0.0 0.9 0.00 0.00 0.00 91 1023.4
20210919131615 69 319 0.0 0.9 0.00 0.00 0.00 91 1023.5
20210919130118 69 36 0.0 0.9 0.00 0.00 0.00 93 1023.3
20210919124633 68 268 0.0 0.9 0.00 0.00 0.00 95 1023.3
20210919123135 67 356 0.0 0.0 0.00 0.00 0.00 97 1023.3
20210919121614 66 117 0.0 0.0 0.00 0.00 0.00 97 1023.3
20210919120134 66 108 0.0 0.0 0.00 0.00 0.00 97 1023.3
20210919114615 65 108 0.0 0.0 0.00 0.00 0.00 97 1023.0
20210919113040 66 108 0.0 0.0 0.00 0.00 0.00 96 1022.9
20210919111632 66 55 0.0 0.0 0.00 0.00 0.00 96 1022.9
20210919110111 67 349 0.0 0.0 0.00 0.00 0.00 95 1022.8
20210919104555 67 334 0.0 0.9 0.00 0.00 0.00 95 1022.8
20210919103116 67 262 0.0 0.9 0.00 0.00 0.00 96 1022.7
20210919101703 66 318 0.0 0.0 0.00 0.00 0.00 97 1022.5
20210919100037 66 44 0.0 0.0 0.00 0.00 0.00 97 1022.5
20210919094552 66 72 0.0 0.0 0.00 0.00 0.00 97 1022.4
20210919093159 66 73 0.0 0.0 0.00 0.00 0.00 97 1022.4
20210919091559 66 73 0.0 0.0 0.00 0.00 0.00 97 1022.3
20210919090037 66 73 0.0 0.0 0.00 0.00 0.00 97 1022.1
20210919084602 66 72 0.0 0.0 0.00 0.00 0.00 97 1022.1
20210919083050 66 328 0.0 0.0 0.00 0.00 0.00 97 1022.2
20210919081538 66 335 0.0 0.0 0.00 0.00 0.00 97 1022.2
20210919080108 66 334 0.0 0.0 0.00 0.00 0.00 97 1022.2
20210919074627 66 319 0.0 0.0 0.00 0.00 0.00 97 1022.3
20210919073056 66 20 0.0 0.0 0.00 0.00 0.00 97 1022.4
20210919071620 66 76 0.0 0.9 0.00 0.00 0.00 98 1022.6
20210919070028 66 342 0.0 0.9 0.00 0.00 0.00 98 1022.8
20210919064525 66 147 0.0 0.0 0.00 0.00 0.00 98 1023.0
20210919063029 66 147 0.0 0.0 0.00 0.00 0.00 98 1022.9
20210919061558 66 160 0.0 0.0 0.00 0.00 0.00 98 1022.9
20210919060055 66 161 0.0 0.0 0.00 0.00 0.00 98 1022.9
20210919053025 66 161 0.0 0.0 0.00 0.00 0.00 98 1022.9
20210919051533 66 162 0.0 0.0 0.00 0.00 0.00 98 1022.9
20210919050024 66 205 0.0 0.0 0.00 0.00 0.00 98 1022.9
20210919044510 66 220 0.0 0.0 0.00 0.00 0.00 98 1022.8
20210919043036 66 197 0.0 0.0 0.00 0.00 0.00 98 1022.8